#timestamp,LO_Frequency,Hit,StdDev 
1701284415.7,286047007.8,N
1701284435.6,286047020.0,Y
1701284455.4,286047029.3,P
1701284475.2,286047035.2,N
1701284495.1,286047044.1,N
1701284496.0,286047044.1,N
1701284515.8,286047036.5,N
1701284535.7,286047039.3,N
1701284555.5,286047032.3,N
1701284575.3,286047034.2,N
1701284595.2,286047031.4,N
1701284615.0,286047038.9,N
1701284615.9,286047038.9,N
1701284635.8,286047043.4,Y
1701284655.6,286047015.3,P
1701284675.4,286047020.0,N
1701284695.3,286047016.4,N
1701284715.1,286047019.1,N
1701284735.9,286047016.0,N
1701284755.7,286047011.0,N
1701284775.5,286047016.9,N
1701284795.4,286047026.8,Y
1701284815.2,286047005.8,P
1701284835.0,286047007.1,N
1701284835.9,286047007.1,N
1701284855.8,286047003.7,N
1701284875.6,286046999.9,N
1701284895.5,286046997.8,N
1701284915.3,286046993.5,N
1701284935.1,286047000.6,N
1701284955.9,286046995.3,N
1701284975.7,286046990.5,N
1701284995.5,286046988.8,N
1701285015.4,286046992.8,N
1701285035.2,286046994.8,N
1701285055.1,286046995.5,N
1701285056.0,286046995.5,N
1701285075.8,286047003.6,N
1701285095.6,286047007.0,N
1701285115.5,286047003.0,N
1701285135.3,286047001.1,N
1701285155.1,286046994.0,N
1701285175.9,286046991.0,N
1701285195.7,286046983.7,N
1701285215.6,286046983.5,N
1701285235.4,286046990.9,N
1701285255.2,286046995.2,N
1701285275.1,286046999.1,N
1701285276.0,286046999.1,N
1701285295.8,286046995.1,N
1701285315.6,286046990.4,N
1701285335.5,286046982.3,N
1701285355.3,286046979.2,Y
1701285375.2,286046980.7,P
1701285395.9,286046975.7,P
1701285415.7,286046978.6,N
1701285435.6,286046978.6,N
1701285455.4,286046981.2,N
1701285475.2,286046980.9,N
1701285495.1,286046977.4,Y
1701285496.0,286046977.4,P
1701285515.8,286046997.7,N
1701285535.7,286047000.4,N
1701285555.5,286046998.3,N
1701285575.3,286046997.2,N
1701285595.2,286046996.2,N
1701285615.0,286046995.9,N
1701285615.9,286046995.9,N
1701285635.8,286046993.2,N
1701285655.6,286046987.0,N
1701285675.4,286046992.1,N
1701285695.3,286046990.9,N
1701285715.1,286046990.6,N
1701285735.8,286046990.6,N
1701285755.7,286046989.8,N
1701285775.5,286046987.7,N
1701285795.4,286046985.4,N
1701285815.2,286046990.5,N
1701285835.0,286046993.8,N
1701285835.9,286046993.8,N
1701285855.8,286046991.7,N
1701285875.6,286046997.4,N
1701285895.4,286047004.2,N
1701285915.3,286047009.7,N
1701285935.1,286047009.9,N
1701285955.9,286047008.5,N
1701285975.7,286047006.8,N
1701285995.5,286047008.6,N
1701286015.4,286047009.3,N
1701286035.2,286047007.0,N
1701286055.0,286047003.6,N
1701286055.9,286047003.6,N
1701286075.8,286046996.9,N
1701286095.6,286046992.2,N
1701286115.5,286046997.9,N
1701286135.3,286046996.6,N
1701286155.1,286046999.4,N
1701286175.9,286047001.7,N
1701286195.7,286047003.4,N
1701286215.5,286046999.5,N
1701286235.4,286047001.1,N
1701286255.2,286046993.3,N
1701286275.1,286046990.2,N
1701286276.0,286046990.2,N
1701286295.8,286046987.0,N
1701286315.6,286046988.1,N
1701286335.5,286046987.2,N
1701286355.3,286046982.5,N
1701286375.1,286046983.6,N
1701286395.9,286046982.9,N
1701286415.7,286046987.6,N
1701286435.6,286046986.4,N
1701286455.4,286046984.4,N
1701286475.2,286046979.3,N
1701286495.1,286046977.6,N
1701286496.0,286046977.6,N
1701286515.8,286046976.5,N
1701286535.6,286046971.3,N
1701286555.5,286046970.8,N
1701286575.3,286046964.7,Y
1701286595.2,286046978.7,P
1701286615.9,286046974.6,P
1701286635.7,286046976.4,P
1701286655.6,286046972.5,Y
1701286675.4,286046996.3,P
1701286695.3,286046993.9,N
1701286715.1,286046996.4,N
1701286716.0,286046996.4,N
1701286735.8,286046994.2,N
1701286755.7,286046993.9,N
1701286775.5,286046997.8,N
1701286795.3,286046997.5,N
1701286815.2,286046997.8,N
1701286835.0,286046993.6,N
1701286835.9,286046993.6,N
1701286855.8,286046996.0,N
1701286875.6,286046991.0,N
1701286895.4,286046990.9,N
1701286915.3,286046993.2,N
1701286935.1,286046988.5,N
1701286955.8,286046994.7,N
1701286975.7,286046995.2,N
1701286995.5,286047001.9,N
1701287015.4,286047002.5,N
1701287035.2,286047000.9,N
1701287055.0,286047000.8,N
1701287055.9,286047000.8,N
1701287075.8,286046997.3,N
1701287095.6,286047002.6,N
1701287115.4,286047002.1,N
1701287135.3,286047004.0,N
1701287155.1,286047002.8,N
1701287175.9,286047000.3,N
1701287195.7,286047000.5,N
1701287215.5,286046999.1,N
1701287235.4,286046998.4,N
1701287255.2,286047000.3,N
1701287275.0,286046998.3,N
1701287275.9,286046998.3,N
1701287295.8,286046995.9,N
1701287315.6,286046990.1,N
1701287335.5,286046991.3,N
1701287355.3,286046991.4,N
1701287375.1,286046989.3,N
1701287395.9,286046990.3,N
1701287415.7,286046990.4,N
1701287435.5,286046989.5,N
1701287455.4,286046989.2,N
1701287475.2,286047000.9,N
1701287495.1,286047001.7,N
1701287496.0,286047001.7,N
1701287515.8,286047002.9,N
1701287535.6,286047003.5,N
1701287555.5,286047003.2,N
1701287575.3,286047002.4,N
1701287595.2,286047000.1,N
1701287615.9,286047005.3,N
1701287635.7,286047003.8,N
1701287655.6,286047003.1,N
1701287675.4,286047010.0,N
1701287695.2,286047012.8,N
1701287715.1,286047012.0,N
1701287716.0,286047012.0,N
1701287735.8,286047008.2,N
1701287755.7,286047012.0,N
1701287775.5,286047007.7,N
1701287795.3,286047008.5,N
1701287815.2,286047006.9,N
1701287835.0,286047009.1,N
1701287835.9,286047009.1,N
1701287855.8,286047012.3,N
1701287875.6,286047014.9,N
1701287895.4,286047022.2,N
1701287915.3,286047024.9,Y
1701287935.1,286047026.2,P
1701287955.8,286047023.8,N
1701287975.7,286047023.2,N
1701287995.5,286047017.5,N
